Date,TemperatureHighF,TemperatureAvgF,TemperatureLowF,DewpointHighF,DewpointAvgF,DewpointLowF,HumidityHigh,HumidityAvg,HumidityLow,PressureMaxIn,PressureMinIn,WindSpeedMaxMPH,WindSpeedAvgMPH,GustSpeedMaxMPH,PrecipitationSumIn
2013-2-1,5.2,0.6,-5.6,-15.4,-19.5,-25.2,37,37,37,30.28,30.11,13,8,17,0.00
2013-2-2,14.5,6.6,-2.9,-8.1,-15.3,-24.9,37,35,32,30.11,29.99,12,4,13,0.00
2013-2-3,23.5,12.8,0.0,2.3,-8.8,-22.3,58,37,30,30.02,29.93,15,5,22,0.00
2013-2-4,20.1,12.0,4.1,3.7,-6.3,-20.4,63,45,29,29.99,29.90,11,4,14,0.00
2013-2-5,29.5,18.1,2.1,11.6,-1.0,-22.2,66,43,30,30.08,29.75,15,8,16,0.00
2013-2-6,32.0,21.8,-4.4,23.0,6.9,-18.3,81,52,43,30.19,30.05,17,6,17,0.00
2013-2-7,35.2,32.1,22.3,31.5,25.4,13.0,88,76,59,30.08,29.90,15,5,15,0.00
2013-2-8,30.2,18.7,-3.3,11.4,0.4,-19.7,62,45,31,30.37,30.08,0,0,0,0.00
2013-2-9,28.9,20.6,-3.8,16.3,7.6,-20.2,83,58,44,30.37,30.05,19,5,22,0.00
2013-2-10,37.9,27.8,13.6,36.6,22.4,7.8,95,80,60,30.05,29.49,24,8,25,0.00
2013-2-11,34.2,29.7,25.5,20.5,12.0,5.6,62,48,39,29.96,29.49,30,14,30,0.00
2013-2-12,28.6,23.7,20.7,12.1,6.1,2.5,62,47,38,30.05,29.84,19,8,19,0.00
2013-2-13,37.0,28.7,15.6,22.6,13.6,7.3,73,54,38,29.84,29.66,13,5,13,0.00
2013-2-14,35.8,34.6,32.7,31.8,24.4,14.1,86,67,44,29.75,29.54,24,8,24,0.00
2013-2-16,13.1,8.2,3.9,-12.5,-16.8,-20.6,30,30,30,30.16,30.14,4,0,4,0.00
2013-2-17,23.9,13.4,-1.3,2.1,-10.6,-25.2,40,33,30,30.16,29.96,15,5,15,0.00
2013-2-18,23.4,23.4,23.4,1.5,1.5,1.5,38,38,38,29.96,29.96,12,12,13,0.00
2013-2-21,26.1,24.9,22.8,20.9,14.9,8.9,85,66,49,30.22,30.05,23,12,23,0.00
2013-2-22,33.3,27.4,23.5,21.3,16.3,11.1,83,63,45,30.05,29.78,23,7,23,0.00
2013-2-23,30.2,25.3,19.4,12.9,8.9,4.4,59,49,38,29.93,29.81,17,10,17,0.00
2013-2-24,38.5,24.4,11.3,12.7,6.7,0.5,67,48,32,30.11,29.93,10,3,10,0.00
2013-2-25,42.6,26.1,10.2,14.8,8.7,-0.2,63,49,29,30.14,30.02,8,2,9,0.00
2013-2-26,34.0,31.0,26.6,28.4,18.1,10.9,91,60,38,30.02,29.63,24,14,32,0.00
2013-2-27,34.2,31.7,28.8,28.4,22.9,18.4,85,70,56,29.78,29.63,20,11,24,0.00
2013-2-28,36.1,31.6,24.3,29.0,14.3,5.2,86,50,37,30.11,29.78,17,9,21,0.00